Weather History for Fort Lauderdale, FL

Change the Weather History Date:

Wednesday, January 29, 2014

  Actual Average Record
Temperature  
Mean Temperature 71 °F -  
Max Temperature 78 °F 76 °F 88 °F (1991)
Min Temperature 64 °F 56 °F 39 °F (1978)
Cooling Degree Days 6    
Growing Degree Days 21 (Base 50)    
Moisture  
Dew Point 66 °F    
Average Humidity 91    
Maximum Humidity 100    
Minimum Humidity 71    
Precipitation  
Precipitation 0.67 in - - ()
Sea Level Pressure  
Sea Level Pressure 30.03 in    
Wind  
Wind Speed 3 mph (North)    
Max Wind Speed 12 mph    
Max Gust Speed 20 mph    
Visibility 8 miles    
Events Rain    
Averages and records for this station are not official NWS values.
T = Trace of Precipitation, MM = Missing Value Source: NWS Daily Summary

Daily Weather History Graph

Daily Weather History Graph

Search for Another Location

Airport:

Trip Planner

Search our weather history database for the weather conditions in past years. The results will help you decide how hot, cold, wet, or windy it might be!

Date:

Astronomy

Jan. 29, 2014 Rise Set
Actual Time 7:06 AM EST 6:01 PM EST
Civil Twilight 6:42 AM EST 6:25 PM EST
Nautical Twilight 6:14 AM EST 6:53 PM EST
Astronomical Twilight 5:46 AM EST 7:21 PM EST
Moon 5:40 AM EST (1/29) 4:58 PM EST (1/29)
Length of Visible Light 11h 43m
Length of Day
10h 55m
Waning Crescent, 2% of the Moon is Illuminated
Jan 29
Waning Crescent
Jan 30
New
Feb 6
First Quarter
Feb 14
Full
Feb 22
Last Quarter

Hourly Weather History & Observations

Time (EST) Temp. Dew Point Humidity Pressure Visibility Wind Dir Wind Speed Gust Speed Precip Events Conditions
12:53 AM 69.1 °F 66.9 °F 93% 30.04 in 10.0 mi Calm Calm - N/A   Clear
1:53 AM 66.9 °F 66.0 °F 97% 30.03 in 10.0 mi Calm Calm - N/A   Partly Cloudy
2:14 AM 66.2 °F 66.2 °F 100% 30.01 in 1.8 mi Calm Calm - N/A   Partly Cloudy
2:23 AM 66.2 °F 64.4 °F 94% 30.01 in 4.0 mi Calm Calm - N/A   Clear
2:53 AM 66.0 °F 66.0 °F 100% 30.00 in 10.0 mi Calm Calm - N/A   Clear
3:08 AM 66.2 °F 64.4 °F 94% 29.99 in 1.5 mi Calm Calm - N/A   Clear
3:19 AM 66.2 °F 64.4 °F 94% 29.99 in 5.0 mi Calm Calm - N/A   Clear
3:53 AM 66.9 °F 64.9 °F 93% 30.00 in 10.0 mi Calm Calm - N/A   Overcast
4:53 AM 66.9 °F 66.0 °F 97% 30.01 in 10.0 mi Calm Calm - N/A   Scattered Clouds
5:53 AM 69.1 °F 68.0 °F 96% 30.01 in 10.0 mi Calm Calm - 0.00 in   Mostly Cloudy
6:33 AM 71.6 °F 69.8 °F 94% 30.02 in 2.5 mi South 9.2 mph - 0.14 in Rain Rain
6:41 AM 71.6 °F 69.8 °F 94% 30.03 in 3.0 mi South 6.9 mph - 0.21 in Rain Heavy Rain
6:53 AM 71.1 °F 69.1 °F 93% 30.04 in 3.0 mi SSW 5.8 mph - 0.29 in Rain Rain
7:53 AM 71.1 °F 69.1 °F 93% 30.06 in 5.0 mi South 5.8 mph - 0.09 in   Overcast
8:53 AM 71.1 °F 68.0 °F 90% 30.06 in 9.0 mi South 4.6 mph - 0.06 in Rain Light Rain
9:53 AM 71.1 °F 69.1 °F 93% 30.07 in 10.0 mi South 4.6 mph - 0.07 in   Overcast
10:53 AM 72.0 °F 69.1 °F 91% 30.06 in 10.0 mi Calm Calm - 0.03 in   Overcast
11:53 AM 75.0 °F 69.1 °F 82% 30.04 in 10.0 mi Calm Calm - N/A   Mostly Cloudy
12:53 PM 78.1 °F 68.0 °F 71% 30.02 in 10.0 mi SSW 3.5 mph - N/A   Overcast
1:09 PM 77.0 °F 69.8 °F 78% 30.00 in 10.0 mi East 5.8 mph - N/A   Overcast
1:53 PM 71.1 °F 66.9 °F 87% 30.01 in 10.0 mi North 11.5 mph 16.1 mph N/A   Mostly Cloudy
2:31 PM 69.8 °F 66.2 °F 88% 30.00 in 5.0 mi North 10.4 mph - 0.09 in Rain Light Rain
2:53 PM 70.0 °F 66.9 °F 90% 29.99 in 5.0 mi NNE 6.9 mph - 0.11 in Rain Light Rain
3:00 PM 69.8 °F 66.2 °F 88% 29.98 in 10.0 mi NNE 6.9 mph - N/A   Overcast
3:20 PM 71.6 °F 66.2 °F 83% 29.99 in 10.0 mi NNE 5.8 mph - N/A   Overcast
3:41 PM 71.6 °F 66.2 °F 83% 30.00 in 10.0 mi North 4.6 mph - N/A   Overcast
3:53 PM 71.1 °F 66.9 °F 87% 30.01 in 10.0 mi North 4.6 mph - 0.00 in Rain Light Rain
4:53 PM 69.1 °F 66.0 °F 90% 30.03 in 10.0 mi NNW 9.2 mph - 0.01 in   Mostly Cloudy
5:00 PM 69.8 °F 66.2 °F 88% 30.02 in 10.0 mi NW 10.4 mph - N/A   Overcast
5:37 PM 66.2 °F 64.4 °F 94% 30.04 in 10.0 mi NNW 9.2 mph - 0.01 in   Overcast
5:53 PM 66.9 °F 64.0 °F 90% 30.04 in 10.0 mi NNW 9.2 mph - 0.01 in   Overcast
6:53 PM 64.9 °F 62.1 °F 90% 30.06 in 10.0 mi North 6.9 mph - N/A   Overcast
7:39 PM 64.4 °F 62.6 °F 94% 30.05 in 10.0 mi North 9.2 mph 16.1 mph N/A   Overcast
7:53 PM 64.9 °F 62.1 °F 90% 30.06 in 10.0 mi North 10.4 mph 19.6 mph N/A   Mostly Cloudy
8:04 PM 66.2 °F 62.6 °F 88% 30.05 in 10.0 mi North 6.9 mph - N/A   Mostly Cloudy
8:53 PM 66.9 °F 64.0 °F 90% 30.06 in 10.0 mi North 6.9 mph - N/A   Mostly Cloudy
8:56 PM 66.2 °F 64.4 °F 94% 30.06 in 10.0 mi North 6.9 mph - N/A   Overcast
9:03 PM 66.2 °F 64.4 °F 94% 30.06 in 10.0 mi North 5.8 mph - N/A   Overcast
9:12 PM 66.2 °F 64.4 °F 94% 30.06 in 10.0 mi NNW 4.6 mph - N/A   Overcast
9:53 PM 66.9 °F 64.9 °F 93% 30.09 in 10.0 mi NNW 5.8 mph - N/A   Overcast
10:16 PM 68.0 °F 64.4 °F 88% 30.08 in 10.0 mi NNW 6.9 mph - N/A   Overcast
10:35 PM 66.2 °F 64.4 °F 94% 30.08 in 9.0 mi North 5.8 mph - N/A   Overcast
10:53 PM 66.9 °F 64.0 °F 90% 30.09 in 10.0 mi NNW 6.9 mph - N/A   Overcast
11:53 PM 64.9 °F 63.0 °F 93% 30.08 in 10.0 mi NW 6.9 mph - N/A   Overcast